Total_Precipitation_Accumulation
0.11 0.13 0.17 0.16 0.16 0.18 0.21 0.20 0.20 0.19 0.18 0.17 0.17 0.16 0.18 0.22 0.16 0.09 0.06 0.07 0.19 0.20 0.08 0.01 0.02 0.04 0.24 0.34 0.65 1.10 1.00 0.52 0.36 0.14 0.05 0.09 0.12 0.09 0.07 0.07 0.09 0.13 0.08 0.25 0.49
0.10 0.13 0.17 0.16 0.17 0.19 0.20 0.18 0.16 0.17 0.18 0.20 0.23 0.26 0.33 0.31 0.09 0.06 0.10 0.14 0.10 0.14 0.02 0.02 0.02 0.06 0.18 0.27 0.66 1.14 0.68 0.15 0.11 0.27 0.21 0.23 0.25 0.20 0.18 0.15 0.15 0.14 0.19 0.52 0.68
0.12 0.14 0.14 0.16 0.18 0.18 0.17 0.18 0.17 0.17 0.16 0.20 0.26 0.39 0.51 0.22 0.05 0.07 0.11 0.07 0.14 0.07 0.02 0.01 0.04 0.16 0.17 0.26 0.42 0.56 0.39 0.09 0.05 0.13 0.44 0.50 0.43 0.31 0.36 0.27 0.21 0.22 0.44 0.61 0.91
0.17 0.18 0.15 0.16 0.20 0.19 0.18 0.16 0.18 0.19 0.22 0.22 0.31 0.47 0.39 0.19 0.07 0.03 0.12 0.07 0.06 0.03 0.04 0.04 0.11 0.23 0.20 0.20 0.21 0.39 0.10 0.15 0.10 0.13 0.31 0.57 0.68 0.42 0.41 0.32 0.20 0.29 0.59 0.87 1.10
0.19 0.21 0.24 0.24 0.22 0.21 0.17 0.16 0.17 0.21 0.22 0.22 0.35 0.52 0.39 0.19 0.05 0.00 0.00 0.02 0.03 0.05 0.07 0.08 0.13 0.19 0.29 0.17 0.23 0.29 0.13 0.24 0.24 0.28 0.33 0.46 0.55 0.74 0.52 0.36 0.29 0.32 0.47 0.92 1.19
0.24 0.27 0.28 0.31 0.33 0.28 0.21 0.22 0.25 0.26 0.21 0.21 0.43 0.51 0.42 0.18 0.00 0.00 0.00 0.00 0.01 0.05 0.14 0.18 0.17 0.20 0.30 0.23 0.31 0.19 0.15 0.18 0.26 0.43 0.47 0.63 0.49 0.77 0.66 0.56 0.31 0.30 0.32 0.80 1.09
0.26 0.30 0.39 0.37 0.27 0.27 0.35 0.37 0.32 0.25 0.26 0.35 0.50 0.48 0.41 0.08 0.00 0.00 0.01 0.04 0.04 0.07 0.07 0.19 0.29 0.39 0.33 0.31 0.20 0.19 0.32 0.33 0.23 0.35 0.52 0.82 0.74 0.62 0.55 0.94 0.58 0.18 0.25 0.65 1.09
0.29 0.30 0.32 0.31 0.41 0.43 0.35 0.30 0.39 0.42 0.42 0.41 0.36 0.52 0.35 0.00 0.00 0.00 0.00 0.03 0.08 0.13 0.15 0.22 0.43 0.39 0.35 0.31 0.19 0.30 0.62 0.54 0.27 0.35 0.66 1.29 1.05 0.22 0.46 1.12 0.85 0.19 0.24 0.47 0.65
0.38 0.35 0.34 0.35 0.37 0.44 0.44 0.45 0.41 0.38 0.44 0.43 0.46 0.56 0.21 0.00 0.00 0.00 0.00 0.00 0.05 0.16 0.21 0.31 0.52 0.52 0.46 0.48 0.52 0.53 0.42 0.17 0.17 0.25 0.70 1.13 0.89 0.37 0.42 1.05 1.11 0.47 0.21 0.41 0.63
0.45 0.44 0.42 0.41 0.49 0.66 0.71 0.61 0.46 0.44 0.32 0.45 0.75 0.93 0.18 0.00 0.00 0.00 0.00 0.00 0.02 0.17 0.39 0.41 0.59 0.70 0.70 0.87 0.64 0.23 0.20 0.13 0.19 0.17 0.41 0.63 0.60 0.42 0.49 0.96 1.35 0.87 0.36 0.66 1.08
0.48 0.53 0.54 0.61 0.63 0.87 1.04 0.93 0.96 0.84 0.72 0.36 0.31 0.26 0.06 0.03 0.05 0.02 0.01 0.02 0.05 0.20 0.19 0.30 0.58 0.57 0.35 0.42 0.21 0.15 0.21 0.21 0.08 0.18 0.39 0.46 0.35 0.60 0.58 1.07 1.35 1.16 0.71 0.79 1.07
0.61 0.64 0.80 0.89 0.85 0.90 0.95 0.80 0.66 1.04 0.68 0.18 0.12 0.10 0.05 0.04 0.12 0.09 0.11 0.17 0.11 0.09 0.14 0.43 0.40 0.04 0.07 0.26 0.38 0.28 0.23 0.12 0.10 0.05 0.28 0.36 0.37 0.67 0.74 1.26 1.46 1.43 1.15 0.77 0.83
0.79 0.83 0.96 1.06 1.16 0.96 0.70 0.56 0.52 0.80 1.19 0.27 0.07 0.05 0.01 0.08 0.11 0.11 0.16 0.33 0.16 0.11 0.13 0.19 0.12 0.04 0.10 0.38 0.60 0.48 0.35 0.13 0.09 0.07 0.21 0.32 0.64 0.84 0.78 1.10 0.80 0.99 1.34 1.41 1.03
0.94 1.06 1.22 1.33 1.38 0.86 0.83 0.77 0.76 1.35 2.25 0.47 0.04 0.06 0.01 0.09 0.16 0.06 0.13 0.39 0.56 0.13 0.14 0.22 0.06 0.14 0.18 0.22 0.44 0.61 0.23 0.21 0.16 0.47 0.69 0.39 1.01 0.44 0.46 0.66 0.24 0.46 0.85 1.51 0.92
1.30 1.30 1.47 1.76 1.16 0.99 0.82 0.91 1.39 2.29 3.18 0.37 0.07 0.04 0.03 0.14 0.10 0.07 0.18 0.52 0.66 0.45 0.28 0.18 0.04 0.24 0.31 0.16 0.23 0.37 0.23 0.26 0.34 0.72 0.71 0.56 1.13 0.30 0.22 0.28 0.19 0.37 0.59 1.01 1.29
1.26 1.70 1.59 1.41 1.30 0.75 0.79 1.57 2.46 3.67 2.85 0.34 0.16 0.11 0.14 0.11 0.04 0.24 0.47 0.72 0.78 0.82 0.65 0.19 0.06 0.14 0.18 0.09 0.16 0.32 0.81 0.63 0.86 1.20 2.17 0.80 0.65 0.26 0.34 0.37 0.22 0.47 0.57 0.60 1.17
1.71 1.90 2.02 1.50 1.32 1.09 1.74 3.13 4.21 3.29 0.77 0.36 0.20 0.21 0.24 0.22 0.16 0.29 1.11 1.24 1.04 1.47 1.23 0.53 0.16 0.03 0.18 0.29 0.48 0.94 1.51 2.48 2.49 2.66 2.09 0.46 0.42 0.43 0.27 0.23 0.47 0.68 0.74 0.78 0.99
1.95 2.05 1.54 1.37 1.20 1.90 3.03 4.18 4.57 1.02 0.29 0.23 0.19 0.26 0.35 0.40 0.35 0.19 0.50 0.93 0.95 1.02 1.32 0.73 0.39 0.10 0.17 0.23 0.47 0.97 1.50 1.95 1.47 1.11 0.58 0.33 0.59 0.29 0.15 0.19 0.48 0.67 0.80 0.79 0.68
2.12 1.88 1.84 1.33 1.15 2.21 3.94 4.91 2.16 0.51 0.28 0.23 0.20 0.41 0.43 0.66 0.90 0.61 0.31 0.55 0.94 1.26 1.68 1.36 0.34 0.08 0.04 0.04 0.20 0.62 1.21 1.04 0.94 0.48 0.50 0.32 0.21 0.18 0.07 0.07 0.17 0.37 0.69 0.88 0.77
2.36 2.25 2.20 1.58 1.97 2.95 4.31 3.13 0.79 0.23 0.31 0.31 0.50 0.45 0.58 0.59 1.01 1.21 0.82 0.60 0.73 0.97 1.51 1.67 1.31 0.18 0.22 0.26 0.25 0.41 0.51 1.04 1.69 1.70 0.86 0.22 0.15 0.19 0.16 0.17 0.13 0.30 0.62 0.96 0.80
2.94 3.15 1.94 2.00 3.11 4.26 4.16 1.41 0.29 0.13 0.30 0.62 0.47 0.49 0.45 0.76 0.95 1.17 1.36 0.64 0.66 0.62 0.96 2.00 1.89 0.79 0.47 0.52 0.33 0.49 1.08 0.96 1.36 1.12 0.96 0.50 0.26 0.43 0.47 0.46 0.37 0.48 0.73 1.23 1.20
3.65 3.33 1.89 2.41 4.25 4.04 1.82 0.52 0.25 0.17 0.29 0.42 0.51 0.36 0.30 0.37 1.06 1.22 0.89 0.97 0.65 0.60 0.78 1.18 2.19 1.36 0.53 0.41 0.32 0.31 0.74 1.01 1.35 1.20 0.80 0.75 0.42 0.39 0.44 0.47 0.44 0.62 0.70 1.23 1.44
4.22 2.72 2.73 2.86 3.45 2.15 0.89 0.41 0.38 0.25 0.32 0.47 0.36 0.37 0.28 0.33 1.04 0.76 0.79 0.57 0.71 0.80 1.22 1.31 2.11 1.93 1.44 1.38 0.68 0.66 0.37 0.62 0.73 0.86 0.79 0.81 0.40 0.21 0.31 0.36 0.39 0.74 0.67 1.17 1.37
4.77 3.56 3.64 4.12 2.33 1.09 0.91 0.69 0.52 0.27 0.30 0.35 0.31 0.39 0.58 0.42 0.55 0.63 0.53 0.45 0.45 0.83 1.08 1.25 1.50 1.31 1.06 1.43 1.40 1.12 0.81 0.52 0.69 0.79 0.71 0.53 0.25 0.18 0.18 0.27 0.31 0.53 0.83 1.23 1.38
4.74 3.01 2.09 2.68 1.92 1.09 1.35 1.10 0.40 0.39 0.47 0.56 0.47 0.32 0.58 0.90 0.62 0.55 0.48 0.58 0.58 0.77 1.06 1.68 1.45 0.79 0.23 0.18 0.43 0.57 0.72 0.66 0.74 0.52 0.65 0.38 0.31 0.24 0.33 0.37 0.48 0.67 0.85 1.03 1.14
3.85 1.90 1.75 1.26 0.79 1.29 1.67 1.13 0.35 0.42 0.56 0.45 0.49 0.20 0.32 0.53 0.61 0.73 0.90 0.90 1.00 1.02 1.51 1.77 1.54 0.62 0.41 0.18 0.25 0.31 0.36 0.51 0.62 0.33 0.21 0.23 0.28 0.21 0.25 0.28 0.48 0.73 0.88 0.97 0.95
2.60 1.42 2.17 2.19 1.30 1.57 1.39 0.84 0.72 0.69 0.49 0.17 0.19 0.50 0.39 0.26 0.26 0.62 0.86 0.91 0.98 1.17 1.41 1.60 1.41 0.81 0.80 0.35 0.79 0.91 0.69 0.50 0.49 0.48 0.30 0.31 0.27 0.12 0.16 0.24 0.70 0.85 0.95 0.99 0.95